Midland City, AL

4:10 AM CST on December 06, 2016 (GMT -0600)
Fort Rucker / Ozark

Weather History for KHEY - September, 2013

Change the Weather History Date:

Thursday, September 26, 2013

  Actual Average (KOZR) Record (KOZR)
Temperature  
Mean Temperature 74 °F -  
Max Temperature 81 °F 79 °F 90 °F (2011)
Min Temperature 68 °F 61 °F 46 °F (2001)
Cooling Degree Days 10    
Growing Degree Days 24 (Base 50)    
Moisture  
Dew Point 66 °F    
Average Humidity 81    
Maximum Humidity 96    
Minimum Humidity 58    
Precipitation  
Precipitation 0.00 in - - ()
Sea Level Pressure  
Sea Level Pressure 29.67 in    
Wind  
Wind Speed 7 mph (NNE)    
Max Wind Speed 13 mph    
Max Gust Speed 16 mph    
Visibility 8 miles    
Events      
Averages and records for this station are not official NWS values.
T = Trace of Precipitation, MM = Missing Value Source: NWS Daily Summary

Daily Weather History Graph

Daily Weather History Graph

Search for Another Location

Airport or City:

Trip Planner

Search our weather history database for the weather conditions in past years. The results will help you decide how hot, cold, wet, or windy it might be!

Date:

Astronomy

Sep. 26, 2013 Rise Set
Actual Time 6:33 AM CDT 6:33 PM CDT
Civil Twilight 6:09 AM CDT 6:57 PM CDT
Nautical Twilight 5:41 AM CDT 7:26 PM CDT
Astronomical Twilight 5:12 AM CDT 7:54 PM CDT
Moon 11:49 PM CDT (9/26) 1:06 PM CDT (9/26)
Length of Visible Light 12h 48m
Length of Day
12h 00m
Waning Gibbous, 54% of the Moon is Illuminated
Sep 26
Waning Gibbous
Sep 26
Last Quarter
Oct 4
New
Oct 11
First Quarter
Oct 18
Full

Hourly Weather History & Observations

Time (CDT) Temp. Heat Index Dew Point Humidity Pressure Visibility Wind Dir Wind Speed Gust Speed Precip Events Conditions
12:37 AM 73.4 °F - 69.8 °F 88% 29.82 in 10.0 mi NNE 8.1 mph - N/A   Scattered Clouds
12:46 AM 71.6 °F - 69.8 °F 94% 29.82 in 9.0 mi NNE 9.2 mph - N/A   Mostly Cloudy
12:53 AM 72.0 °F - 70.0 °F 93% 29.49 in 9.0 mi NNE 6.9 mph - N/A   Mostly Cloudy
1:53 AM 72.0 °F - 69.1 °F 91% 29.50 in 6.0 mi North 9.2 mph - N/A   Overcast
2:53 AM 71.1 °F - 69.1 °F 93% 29.50 in 3.0 mi NE 5.8 mph - N/A   Overcast
3:21 AM 71.6 °F - 69.8 °F 94% 29.83 in 2.0 mi NNE 5.8 mph - N/A   Overcast
3:53 AM 70.0 °F - 68.0 °F 93% 29.50 in 1.0 mi North 5.8 mph - N/A   Overcast
4:21 AM 69.8 °F - 68.0 °F 94% 29.84 in 2.0 mi North 6.9 mph - N/A   Overcast
4:42 AM 69.8 °F - 66.2 °F 88% 29.85 in 5.0 mi NNE 6.9 mph - N/A   Overcast
4:53 AM 69.1 °F - 68.0 °F 96% 29.52 in 3.0 mi North 8.1 mph - N/A   Overcast
5:53 AM 69.1 °F - 66.9 °F 93% 29.54 in 6.0 mi NNE 5.8 mph - N/A   Overcast
6:53 AM 69.1 °F - 66.0 °F 90% 29.57 in 8.0 mi North 5.8 mph - N/A   Overcast
7:45 AM 69.8 °F - 66.2 °F 88% 29.91 in 9.0 mi North 4.6 mph - N/A   Overcast
7:53 AM 69.1 °F - 66.0 °F 90% 29.59 in 7.0 mi NNE 5.8 mph - N/A   Overcast
8:45 AM 69.8 °F - 66.2 °F 88% 29.94 in 10.0 mi NE 3.5 mph - N/A   Overcast
8:53 AM 70.0 °F - 64.9 °F 84% 29.61 in 10.0 mi ENE 5.8 mph - N/A   Overcast
9:53 AM 73.0 °F - 64.9 °F 76% 29.62 in 10.0 mi NE 5.8 mph - N/A   Overcast
10:53 AM 73.9 °F - 64.9 °F 73% 29.62 in 10.0 mi North 5.8 mph - N/A   Overcast
11:30 AM 75.2 °F - 64.4 °F 69% 29.95 in 10.0 mi North 5.8 mph - N/A   Overcast
11:53 AM 75.9 °F - 64.9 °F 69% 29.61 in 10.0 mi Variable 5.8 mph - N/A   Overcast
12:53 PM 79.0 °F - 64.9 °F 62% 29.60 in 10.0 mi NNE 4.6 mph - N/A   Mostly Cloudy
1:40 PM 80.6 °F 82.7 °F 66.2 °F 61% 29.92 in 10.0 mi North 4.6 mph - N/A   Mostly Cloudy
1:53 PM 80.1 °F 81.9 °F 64.9 °F 60% 29.58 in 10.0 mi NNE 9.2 mph - N/A   Mostly Cloudy
2:53 PM 81.0 °F 82.7 °F 64.9 °F 58% 29.58 in 10.0 mi NNE 12.7 mph 16.1 mph N/A   Scattered Clouds
3:53 PM 80.1 °F 81.7 °F 64.0 °F 58% 29.58 in 10.0 mi NNE 8.1 mph - N/A   Scattered Clouds
5:53 PM 78.1 °F - 64.0 °F 62% 29.60 in 10.0 mi East 8.1 mph - N/A   Clear
6:53 PM 75.0 °F - 64.9 °F 71% 29.61 in 10.0 mi East 4.6 mph - N/A   Scattered Clouds
7:53 PM 72.0 °F - 66.0 °F 81% 29.62 in 10.0 mi East 4.6 mph - N/A   Scattered Clouds
8:53 PM 71.1 °F - 66.0 °F 84% 29.65 in 10.0 mi East 6.9 mph - N/A   Clear
9:53 PM 70.0 °F - 64.0 °F 81% 29.65 in 10.0 mi ENE 4.6 mph - N/A   Clear
10:53 PM 68.0 °F - 63.0 °F 84% 29.66 in 10.0 mi NNE 3.5 mph - N/A   Clear
11:53 PM 69.1 °F - 62.1 °F 78% 29.65 in 10.0 mi NE 4.6 mph - N/A   Clear